{"data":{"norad_id":45660,"epoch":"2026-09-20T04:33:46.579680Z","epoch_age_seconds":45086,"freshness":"FRESH","line1":"1 45660U 20035D   26263.19012245  .00025219  00000+0  62170-3 0  9991","line2":"2 45660  53.1302 237.0257 0004157  55.3345 304.8051 15.40421562348595","mean_motion":15.40421562,"eccentricity":0.0004157,"inclination_deg":53.1302,"raan_deg":237.0257,"arg_perigee_deg":55.3345,"mean_anomaly_deg":304.8051,"bstar":0.0006217,"rev_number":34859,"period_min":93.480903898176,"perigee_km":442.02789385224,"apogee_km":447.70053706277,"semimajor_km":6823.0012154575,"source":"CELESTRAK","updated_at":"2026-09-20T09:00:38.449733Z"}}